Location: Crescent
(42.8242°N, 73.7329°W)
Time: 07:09:39
(UTC+00:00)

Explorer 7 - Pass Details

Date: 16 February 2026
Orbit: 430 x 541 km, 50.2° (Epoch: 9 March)

Event Time Altitude Azimuth Distance (km) Brightness Sun altitude
Rises 01:43:38 0° 301° (WNW) 2,566 11.2 -36.4°
Enters shadow 01:45:26 - 304° (NW) 1,845 10.2 -36.7°
Reaches altitude 10° 01:45:48 10° 305° (NW) 1,703 - -36.8°
Maximum altitude 01:49:37 58° 25° (NNE) 603 - -37.4°
Drops below altitude 10° 01:53:35 10° 105° (ESE) 1,761 - -38.1°
Sets 01:55:52 0° 110° (ESE) 2,664 - -38.5°
